Time,TemperatureF,DewpointF,PressureIn,WindDirection,WindDirectionDegrees,WindSpeedMPH,WindSpeedGustMPH,Humidity,HourlyPrecipIn,Conditions,Clouds,dailyrainin,SoftwareType,DateUTC
2013-01-03 00:00:00,28.8,24.6,30.28,West,280,2.0,2.0,84,0.00,,,0.00,Wunderground v.1.15,2013-01-03 06:00:00,
2013-01-03 00:05:00,28.8,24.6,30.28,West,280,2.0,2.0,84,0.00,,,0.00,Wunderground v.1.15,2013-01-03 06:05:00,
2013-01-03 00:15:00,28.8,24.9,30.28,West,280,2.0,2.0,85,0.00,,,0.00,Wunderground v.1.15,2013-01-03 06:15:00,
2013-01-03 00:25:00,28.8,24.9,30.27,West,280,2.0,2.0,85,0.00,,,0.00,Wunderground v.1.15,2013-01-03 06:25:00,
2013-01-03 00:35:00,28.8,24.9,30.28,West,281,2.0,3.0,85,0.00,,,0.00,Wunderground v.1.15,2013-01-03 06:35:00,
2013-01-03 00:45:00,28.8,24.9,30.27,WNW,282,2.0,2.0,85,0.00,,,0.00,Wunderground v.1.15,2013-01-03 06:45:00,
2013-01-03 00:55:00,28.8,24.9,30.27,WNW,284,3.0,7.0,85,0.00,,,0.00,Wunderground v.1.15,2013-01-03 06:55:00,
2013-01-03 01:00:00,28.9,25.2,30.27,WNW,294,3.0,5.0,86,0.00,,,0.00,Wunderground v.1.15,2013-01-03 07:00:00,
2013-01-03 01:05:00,28.9,25.2,30.27,WNW,296,4.0,5.0,86,0.00,,,0.00,Wunderground v.1.15,2013-01-03 07:05:00,
2013-01-03 01:15:00,29.0,25.3,30.27,WNW,302,5.0,5.0,86,0.00,,,0.00,Wunderground v.1.15,2013-01-03 07:15:00,
2013-01-03 01:25:00,29.1,25.4,30.28,NW,304,4.0,7.0,86,0.00,,,0.00,Wunderground v.1.15,2013-01-03 07:25:00,
2013-01-03 01:30:00,29.2,25.5,30.27,NW,306,4.0,6.0,86,0.00,,,0.00,Wunderground v.1.15,2013-01-03 07:30:00,
2013-01-03 01:40:00,29.3,25.6,30.28,West,276,5.0,5.0,86,0.00,,,0.00,Wunderground v.1.15,2013-01-03 07:40:00,
2013-01-03 01:45:00,29.4,25.7,30.28,NW,311,6.0,6.0,86,0.00,,,0.00,Wunderground v.1.15,2013-01-03 07:45:00,
2013-01-03 01:55:00,29.5,25.8,30.28,NW,306,6.0,6.0,86,0.00,,,0.00,Wunderground v.1.15,2013-01-03 07:55:00,
2013-01-03 02:05:00,29.6,25.9,30.28,WNW,302,6.0,6.0,86,0.00,,,0.00,Wunderground v.1.15,2013-01-03 08:05:00,
2013-01-03 02:15:00,29.7,26.0,30.29,WNW,294,6.0,8.0,86,0.00,,,0.00,Wunderground v.1.15,2013-01-03 08:15:00,
2013-01-03 02:25:00,29.7,26.0,30.29,WNW,292,3.0,4.0,86,0.00,,,0.00,Wunderground v.1.15,2013-01-03 08:25:00,
2013-01-03 02:35:00,29.7,26.0,30.30,West,281,3.0,5.0,86,0.00,,,0.00,Wunderground v.1.15,2013-01-03 08:35:00,
2013-01-03 02:45:00,29.8,26.1,30.30,NW,311,4.0,5.0,86,0.00,,,0.00,Wunderground v.1.15,2013-01-03 08:45:00,
2013-01-03 02:50:00,29.7,25.7,30.30,West,280,4.0,6.0,85,0.00,,,0.00,Wunderground v.1.15,2013-01-03 08:50:00,
2013-01-03 03:00:00,29.7,25.7,30.30,WNW,290,6.0,6.0,85,0.00,,,0.00,Wunderground v.1.15,2013-01-03 09:00:00,
2013-01-03 03:05:00,29.7,25.7,30.31,WNW,294,6.0,6.0,85,0.00,,,0.00,Wunderground v.1.15,2013-01-03 09:05:00,
2013-01-03 03:15:00,29.7,25.7,30.31,WNW,294,6.0,10.0,85,0.00,,,0.00,Wunderground v.1.15,2013-01-03 09:15:00,
2013-01-03 03:25:00,29.7,25.7,30.31,NW,304,7.0,10.0,85,0.00,,,0.00,Wunderground v.1.15,2013-01-03 09:25:00,
2013-01-03 03:30:00,29.7,25.7,30.31,NW,318,7.0,7.0,85,0.00,,,0.00,Wunderground v.1.15,2013-01-03 09:30:00,
2013-01-03 03:35:00,29.7,25.7,30.31,NW,320,6.0,12.0,85,0.00,,,0.00,Wunderground v.1.15,2013-01-03 09:35:00,
2013-01-03 03:45:00,29.7,25.7,30.31,NNW,328,7.0,10.0,85,0.00,,,0.00,Wunderground v.1.15,2013-01-03 09:45:00,
2013-01-03 03:50:00,29.7,25.7,30.31,NW,305,6.0,11.0,85,0.00,,,0.00,Wunderground v.1.15,2013-01-03 09:50:00,
2013-01-03 04:00:00,29.7,25.7,30.31,WNW,299,6.0,6.0,85,0.00,,,0.00,Wunderground v.1.15,2013-01-03 10:00:00,
2013-01-03 04:05:00,29.6,25.6,30.31,WNW,296,6.0,7.0,85,0.00,,,0.00,Wunderground v.1.15,2013-01-03 10:05:00,
2013-01-03 04:15:00,29.6,25.6,30.31,WNW,300,6.0,6.0,85,0.00,,,0.00,Wunderground v.1.15,2013-01-03 10:15:00,
2013-01-03 04:25:00,29.5,25.5,30.31,NW,325,7.0,9.0,85,0.00,,,0.00,Wunderground v.1.15,2013-01-03 10:25:00,
2013-01-03 04:35:00,29.4,25.2,30.31,WNW,284,5.0,6.0,84,0.00,,,0.00,Wunderground v.1.15,2013-01-03 10:35:00,
2013-01-03 04:40:00,29.4,25.2,30.31,NW,305,6.0,12.0,84,0.00,,,0.00,Wunderground v.1.15,2013-01-03 10:40:00,
2013-01-03 04:50:00,29.3,25.1,30.31,WNW,299,7.0,7.0,84,0.00,,,0.00,Wunderground v.1.15,2013-01-03 10:50:00,
2013-01-03 04:55:00,29.3,25.1,30.31,WNW,292,5.0,7.0,84,0.00,,,0.00,Wunderground v.1.15,2013-01-03 10:55:00,
2013-01-03 05:00:00,29.3,25.1,30.32,West,271,5.0,10.0,84,0.00,,,0.00,Wunderground v.1.15,2013-01-03 11:00:00,
2013-01-03 05:05:00,29.2,25.0,30.32,NNW,327,6.0,13.0,84,0.00,,,0.00,Wunderground v.1.15,2013-01-03 11:05:00,
2013-01-03 05:15:00,29.2,25.0,30.32,NW,306,7.0,10.0,84,0.00,,,0.00,Wunderground v.1.15,2013-01-03 11:15:00,
2013-01-03 05:25:00,29.1,24.9,30.33,NW,316,6.0,13.0,84,0.00,,,0.00,Wunderground v.1.15,2013-01-03 11:25:00,
2013-01-03 05:35:00,29.0,24.5,30.33,NW,308,6.0,7.0,83,0.00,,,0.00,Wunderground v.1.15,2013-01-03 11:35:00,
2013-01-03 05:40:00,29.0,24.5,30.33,WNW,295,5.0,8.0,83,0.00,,,0.00,Wunderground v.1.15,2013-01-03 11:40:00,
2013-01-03 05:50:00,28.9,24.4,30.33,NNW,331,5.0,5.0,83,0.00,,,0.00,Wunderground v.1.15,2013-01-03 11:50:00,
2013-01-03 06:00:00,28.9,24.4,30.34,NW,314,6.0,6.0,83,0.00,,,0.00,Wunderground v.1.15,2013-01-03 12:00:00,
2013-01-03 06:05:00,28.9,24.4,30.34,NW,306,7.0,7.0,83,0.00,,,0.00,Wunderground v.1.15,2013-01-03 12:05:00,
2013-01-03 06:15:00,28.8,24.0,30.35,WNW,296,8.0,8.0,82,0.00,,,0.00,Wunderground v.1.15,2013-01-03 12:15:00,
2013-01-03 06:20:00,28.8,24.0,30.35,NNW,340,9.0,9.0,82,0.00,,,0.00,Wunderground v.1.15,2013-01-03 12:20:00,
2013-01-03 06:25:00,28.8,24.0,30.35,WNW,292,8.0,10.0,82,0.00,,,0.00,Wunderground v.1.15,2013-01-03 12:25:00,
2013-01-03 06:35:00,28.8,24.0,30.35,NW,307,8.0,8.0,82,0.00,,,0.00,Wunderground v.1.15,2013-01-03 12:35:00,
2013-01-03 06:45:00,28.7,23.9,30.36,North,355,9.0,21.0,82,0.00,,,0.00,Wunderground v.1.15,2013-01-03 12:45:00,
2013-01-03 06:55:00,28.5,23.7,30.36,NW,304,9.0,11.0,82,0.00,,,0.00,Wunderground v.1.15,2013-01-03 12:55:00,
2013-01-03 07:05:00,28.4,23.6,30.36,NNW,327,6.0,7.0,82,0.00,,,0.00,Wunderground v.1.15,2013-01-03 13:05:00,
2013-01-03 07:15:00,28.2,23.4,30.36,NW,315,8.0,12.0,82,0.00,,,0.00,Wunderground v.1.15,2013-01-03 13:15:00,
2013-01-03 07:25:00,27.6,22.8,30.37,NNW,347,9.0,12.0,82,0.00,,,0.00,Wunderground v.1.15,2013-01-03 13:25:00,
2013-01-03 07:35:00,26.8,21.8,30.37,NNW,334,9.0,11.0,81,0.00,,,0.00,Wunderground v.1.15,2013-01-03 13:35:00,
2013-01-03 07:45:00,25.6,20.3,30.38,North,351,10.0,20.0,80,0.00,,,0.00,Wunderground v.1.15,2013-01-03 13:45:00,
2013-01-03 07:55:00,24.5,19.2,30.39,WNW,298,10.0,12.0,80,0.00,,,0.00,Wunderground v.1.15,2013-01-03 13:55:00,
2013-01-03 08:00:00,24.2,18.9,30.39,WNW,296,8.0,17.0,80,0.00,,,0.00,Wunderground v.1.15,2013-01-03 14:00:00,
2013-01-03 08:05:00,23.8,18.5,30.39,WNW,298,9.0,17.0,80,0.00,,,0.00,Wunderground v.1.15,2013-01-03 14:05:00,
2013-01-03 08:15:00,23.1,17.6,30.39,NW,313,12.0,17.0,79,0.00,,,0.00,Wunderground v.1.15,2013-01-03 14:15:00,
2013-01-03 08:25:00,22.6,17.1,30.40,NNW,343,12.0,13.0,79,0.00,,,0.00,Wunderground v.1.15,2013-01-03 14:25:00,
2013-01-03 08:35:00,22.2,16.4,30.40,WNW,301,13.0,13.0,78,0.00,,,0.00,Wunderground v.1.15,2013-01-03 14:35:00,
2013-01-03 08:45:00,22.1,16.3,30.41,NW,306,13.0,14.0,78,0.00,,,0.00,Wunderground v.1.15,2013-01-03 14:45:00,
2013-01-03 08:50:00,22.0,16.2,30.41,NW,315,14.0,14.0,78,0.00,,,0.00,Wunderground v.1.15,2013-01-03 14:50:00,
2013-01-03 08:55:00,21.9,16.1,30.41,NW,324,13.0,14.0,78,0.00,,,0.00,Wunderground v.1.15,2013-01-03 14:55:00,
2013-01-03 09:00:00,21.7,15.9,30.42,NW,309,9.0,9.0,78,0.00,,,0.00,Wunderground v.1.15,2013-01-03 15:00:00,
2013-01-03 09:05:00,21.7,15.9,30.42,NW,317,7.0,10.0,78,0.00,,,0.00,Wunderground v.1.15,2013-01-03 15:05:00,
2013-01-03 09:15:00,21.4,15.6,30.42,WNW,287,10.0,18.0,78,0.00,,,0.00,Wunderground v.1.15,2013-01-03 15:15:00,
2013-01-03 09:25:00,21.2,15.7,30.43,WNW,289,12.0,13.0,79,0.00,,,0.00,Wunderground v.1.15,2013-01-03 15:25:00,
2013-01-03 09:35:00,21.1,15.6,30.43,NW,315,11.0,12.0,79,0.00,,,0.00,Wunderground v.1.15,2013-01-03 15:35:00,
2013-01-03 09:45:00,21.2,15.7,30.44,NW,323,7.0,10.0,79,0.00,,,0.00,Wunderground v.1.15,2013-01-03 15:45:00,
2013-01-03 09:50:00,21.1,15.6,30.44,NW,306,8.0,8.0,79,0.00,,,0.00,Wunderground v.1.15,2013-01-03 15:50:00,
2013-01-03 10:00:00,20.9,15.4,30.44,NW,305,10.0,12.0,79,0.00,,,0.00,Wunderground v.1.15,2013-01-03 16:00:00,
2013-01-03 10:05:00,21.0,15.5,30.44,NNW,327,9.0,12.0,79,0.00,,,0.00,Wunderground v.1.15,2013-01-03 16:05:00,
2013-01-03 10:15:00,21.0,15.5,30.45,NW,321,9.0,9.0,79,0.00,,,0.00,Wunderground v.1.15,2013-01-03 16:15:00,
2013-01-03 10:25:00,21.0,15.5,30.45,WNW,296,8.0,13.0,79,0.00,,,0.00,Wunderground v.1.15,2013-01-03 16:25:00,
2013-01-03 10:30:00,21.0,15.5,30.45,WNW,300,7.0,11.0,79,0.00,,,0.00,Wunderground v.1.15,2013-01-03 16:30:00,
2013-01-03 10:40:00,21.0,15.5,30.45,NNE,17,9.0,9.0,79,0.00,,,0.00,Wunderground v.1.15,2013-01-03 16:40:00,
2013-01-03 10:45:00,21.0,15.5,30.46,WNW,300,8.0,12.0,79,0.00,,,0.00,Wunderground v.1.15,2013-01-03 16:45:00,
2013-01-03 10:50:00,21.2,15.4,30.46,NNW,327,8.0,9.0,78,0.00,,,0.00,Wunderground v.1.15,2013-01-03 16:50:00,
2013-01-03 10:55:00,21.3,15.5,30.46,NW,316,9.0,10.0,78,0.00,,,0.00,Wunderground v.1.15,2013-01-03 16:55:00,
2013-01-03 11:00:00,21.5,15.4,30.45,NW,315,8.0,8.0,77,0.00,,,0.00,Wunderground v.1.15,2013-01-03 17:00:00,
2013-01-03 11:05:00,21.8,15.7,30.45,NW,306,6.0,8.0,77,0.00,,,0.00,Wunderground v.1.15,2013-01-03 17:05:00,
2013-01-03 11:15:00,22.6,16.5,30.45,NW,304,6.0,8.0,77,0.00,,,0.00,Wunderground v.1.15,2013-01-03 17:15:00,
2013-01-03 11:20:00,22.9,16.5,30.45,West,275,6.0,6.0,76,0.00,,,0.00,Wunderground v.1.15,2013-01-03 17:20:00,
2013-01-03 11:25:00,23.4,16.9,30.45,WNW,284,6.0,6.0,76,0.00,,,0.00,Wunderground v.1.15,2013-01-03 17:25:00,
2013-01-03 11:35:00,22.8,15.8,30.45,NNW,334,8.0,11.0,74,0.00,,,0.00,Wunderground v.1.15,2013-01-03 17:35:00,
2013-01-03 11:40:00,22.7,15.7,30.44,WNW,300,7.0,7.0,74,0.00,,,0.00,Wunderground v.1.15,2013-01-03 17:40:00,
2013-01-03 11:45:00,22.7,15.3,30.44,NW,316,6.0,7.0,73,0.00,,,0.00,Wunderground v.1.15,2013-01-03 17:45:00,
2013-01-03 11:55:00,22.5,15.1,30.44,NW,311,8.0,12.0,73,0.00,,,0.00,Wunderground v.1.15,2013-01-03 17:55:00,
2013-01-03 12:00:00,22.8,15.4,30.44,WNW,300,9.0,12.0,73,0.00,,,0.00,Wunderground v.1.15,2013-01-03 18:00:00,
2013-01-03 12:05:00,23.1,15.4,30.44,NW,321,9.0,12.0,72,0.00,,,0.00,Wunderground v.1.15,2013-01-03 18:05:00,
2013-01-03 12:15:00,23.6,15.9,30.43,NW,321,7.0,7.0,72,0.00,,,0.00,Wunderground v.1.15,2013-01-03 18:15:00,
2013-01-03 12:20:00,23.5,15.5,30.43,NW,321,7.0,7.0,71,0.00,,,0.00,Wunderground v.1.15,2013-01-03 18:20:00,
2013-01-03 12:25:00,23.5,15.5,30.43,NW,311,7.0,7.0,71,0.00,,,0.00,Wunderground v.1.15,2013-01-03 18:25:00,
2013-01-03 12:35:00,23.6,15.6,30.43,NW,309,9.0,10.0,71,0.00,,,0.00,Wunderground v.1.15,2013-01-03 18:35:00,
2013-01-03 12:40:00,23.8,15.4,30.42,NW,314,7.0,7.0,70,0.00,,,0.00,Wunderground v.1.15,2013-01-03 18:40:00,
2013-01-03 12:50:00,23.9,14.9,30.42,NNW,338,8.0,8.0,68,0.00,,,0.00,Wunderground v.1.15,2013-01-03 18:50:00,
2013-01-03 13:00:00,24.5,15.1,30.42,WNW,300,5.0,5.0,67,0.00,,,0.00,Wunderground v.1.15,2013-01-03 19:00:00,
2013-01-03 13:05:00,25.0,15.6,30.42,NW,306,6.0,6.0,67,0.00,,,0.00,Wunderground v.1.15,2013-01-03 19:05:00,
2013-01-03 13:15:00,25.2,15.4,30.42,NNW,343,6.0,7.0,66,0.00,,,0.00,Wunderground v.1.15,2013-01-03 19:15:00,
2013-01-03 14:00:00,24.2,15.5,30.42,NNE,28,6.0,6.0,69,0.00,,,0.00,Wunderground v.1.15,2013-01-03 20:00:00,
2013-01-03 14:05:00,24.2,15.5,30.41,NW,326,5.0,6.0,69,0.00,,,0.00,Wunderground v.1.15,2013-01-03 20:05:00,
2013-01-03 14:15:00,24.3,15.9,30.41,NW,304,4.0,4.0,70,0.00,,,0.00,Wunderground v.1.15,2013-01-03 20:15:00,
2013-01-03 14:20:00,24.3,15.9,30.42,WNW,302,3.0,4.0,70,0.00,,,0.00,Wunderground v.1.15,2013-01-03 20:20:00,
2013-01-03 14:25:00,24.2,15.8,30.41,WNW,290,4.0,4.0,70,0.00,,,0.00,Wunderground v.1.15,2013-01-03 20:25:00,
2013-01-03 14:35:00,24.3,15.9,30.41,NW,319,5.0,6.0,70,0.00,,,0.00,Wunderground v.1.15,2013-01-03 20:35:00,
2013-01-03 14:40:00,24.2,15.8,30.41,WNW,288,5.0,8.0,70,0.00,,,0.00,Wunderground v.1.15,2013-01-03 20:40:00,
2013-01-03 14:50:00,23.9,15.5,30.42,WNW,299,5.0,5.0,70,0.00,,,0.00,Wunderground v.1.15,2013-01-03 20:50:00,
2013-01-03 14:55:00,23.8,15.4,30.42,NW,317,5.0,8.0,70,0.00,,,0.00,Wunderground v.1.15,2013-01-03 20:55:00,
2013-01-03 15:00:00,23.7,15.7,30.42,NW,325,4.0,4.0,71,0.00,,,0.00,Wunderground v.1.15,2013-01-03 21:00:00,
2013-01-03 15:05:00,23.7,15.7,30.42,West,269,3.0,4.0,71,0.00,,,0.00,Wunderground v.1.15,2013-01-03 21:05:00,
2013-01-03 15:15:00,23.8,16.1,30.42,WNW,284,3.0,6.0,72,0.00,,,0.00,Wunderground v.1.15,2013-01-03 21:15:00,
2013-01-03 15:20:00,23.8,16.1,30.42,WNW,296,3.0,7.0,72,0.00,,,0.00,Wunderground v.1.15,2013-01-03 21:20:00,
2013-01-03 15:25:00,23.8,16.1,30.42,WNW,282,3.0,7.0,72,0.00,,,0.00,Wunderground v.1.15,2013-01-03 21:25:00,
2013-01-03 15:35:00,23.8,16.1,30.42,WNW,295,3.0,3.0,72,0.00,,,0.00,Wunderground v.1.15,2013-01-03 21:35:00,
2013-01-03 15:45:00,23.9,16.2,30.42,WSW,240,2.0,3.0,72,0.00,,,0.00,Wunderground v.1.15,2013-01-03 21:45:00,
2013-01-03 15:50:00,23.8,16.1,30.42,West,262,2.0,2.0,72,0.00,,,0.00,Wunderground v.1.15,2013-01-03 21:50:00,
2013-01-03 16:00:00,23.5,15.8,30.42,WSW,250,2.0,2.0,72,0.00,,,0.00,Wunderground v.1.15,2013-01-03 22:00:00,
2013-01-03 16:05:00,23.4,15.7,30.42,WSW,251,1.0,2.0,72,0.00,,,0.00,Wunderground v.1.15,2013-01-03 22:05:00,
2013-01-03 16:15:00,23.3,15.9,30.42,WSW,253,2.0,2.0,73,0.00,,,0.00,Wunderground v.1.15,2013-01-03 22:15:00,
2013-01-03 16:20:00,23.2,15.8,30.42,WSW,253,2.0,2.0,73,0.00,,,0.00,Wunderground v.1.15,2013-01-03 22:20:00,
2013-01-03 16:25:00,23.2,15.8,30.42,WSW,253,2.0,3.0,73,0.00,,,0.00,Wunderground v.1.15,2013-01-03 22:25:00,
2013-01-03 16:30:00,23.1,16.0,30.42,WSW,253,2.0,2.0,74,0.00,,,0.00,Wunderground v.1.15,2013-01-03 22:30:00,
2013-01-03 16:35:00,23.1,16.0,30.42,WSW,252,2.0,2.0,74,0.00,,,0.00,Wunderground v.1.15,2013-01-03 22:35:00,
2013-01-03 16:45:00,22.9,15.8,30.42,WSW,247,2.0,4.0,74,0.00,,,0.00,Wunderground v.1.15,2013-01-03 22:45:00,
2013-01-03 16:50:00,22.8,15.8,30.42,WSW,247,2.0,2.0,74,0.00,,,0.00,Wunderground v.1.15,2013-01-03 22:50:00,
2013-01-03 16:55:00,22.7,15.7,30.42,WSW,247,2.0,2.0,74,0.00,,,0.00,Wunderground v.1.15,2013-01-03 22:55:00,
2013-01-03 17:05:00,22.6,15.9,30.42,WSW,247,1.0,2.0,75,0.00,,,0.00,Wunderground v.1.15,2013-01-03 23:05:00,
2013-01-03 17:15:00,22.2,15.5,30.42,WSW,246,2.0,2.0,75,0.00,,,0.00,Wunderground v.1.15,2013-01-03 23:15:00,
2013-01-03 17:25:00,22.0,15.3,30.42,WSW,246,2.0,2.0,75,0.00,,,0.00,Wunderground v.1.15,2013-01-03 23:25:00,
2013-01-03 17:35:00,21.6,14.9,30.42,WSW,246,1.0,3.0,75,0.00,,,0.00,Wunderground v.1.15,2013-01-03 23:35:00,
2013-01-03 17:40:00,21.4,14.7,30.42,WSW,246,1.0,1.0,75,0.00,,,0.00,Wunderground v.1.15,2013-01-03 23:40:00,
2013-01-03 17:45:00,21.2,14.5,30.42,WSW,246,2.0,2.0,75,0.00,,,0.00,Wunderground v.1.15,2013-01-03 23:45:00,
2013-01-03 17:50:00,21.0,14.3,30.43,WSW,246,1.0,1.0,75,0.00,,,0.00,Wunderground v.1.15,2013-01-03 23:50:00,
2013-01-03 17:55:00,20.8,14.4,30.43,WSW,246,1.0,1.0,76,0.00,,,0.00,Wunderground v.1.15,2013-01-03 23:55:00,
2013-01-03 18:05:00,20.4,14.0,30.43,WSW,246,1.0,1.0,76,0.00,,,0.00,Wunderground v.1.15,2013-01-04 00:05:00,
2013-01-03 18:15:00,20.1,13.7,30.43,WSW,246,1.0,1.0,76,0.00,,,0.00,Wunderground v.1.15,2013-01-04 00:15:00,
2013-01-03 18:20:00,20.0,13.9,30.42,WSW,246,1.0,1.0,77,0.00,,,0.00,Wunderground v.1.15,2013-01-04 00:20:00,
2013-01-03 18:30:00,19.7,13.7,30.42,WSW,246,1.0,1.0,77,0.00,,,0.00,Wunderground v.1.15,2013-01-04 00:30:00,
2013-01-03 18:40:00,19.4,13.4,30.42,WSW,246,1.0,1.0,77,0.00,,,0.00,Wunderground v.1.15,2013-01-04 00:40:00,
2013-01-03 18:45:00,19.2,13.2,30.42,WSW,246,1.0,1.0,77,0.00,,,0.00,Wunderground v.1.15,2013-01-04 00:45:00,
2013-01-03 18:50:00,19.0,13.0,30.42,WSW,246,1.0,1.0,77,0.00,,,0.00,Wunderground v.1.15,2013-01-04 00:50:00,
2013-01-03 19:00:00,18.7,13.0,30.41,WSW,246,2.0,2.0,78,0.00,,,0.00,Wunderground v.1.15,2013-01-04 01:00:00,
2013-01-03 19:05:00,18.5,12.8,30.41,WSW,246,2.0,3.0,78,0.00,,,0.00,Wunderground v.1.15,2013-01-04 01:05:00,
2013-01-03 19:15:00,18.2,12.8,30.41,WSW,237,2.0,3.0,79,0.00,,,0.00,Wunderground v.1.15,2013-01-04 01:15:00,
2013-01-03 19:25:00,18.0,12.6,30.41,SSW,198,3.0,3.0,79,0.00,,,0.00,Wunderground v.1.15,2013-01-04 01:25:00,
2013-01-03 19:30:00,17.9,12.5,30.41,SSW,197,3.0,3.0,79,0.00,,,0.00,Wunderground v.1.15,2013-01-04 01:30:00,
2013-01-03 19:35:00,17.9,12.8,30.41,SSW,197,2.0,3.0,80,0.00,,,0.00,Wunderground v.1.15,2013-01-04 01:35:00,
2013-01-03 19:40:00,17.7,12.6,30.41,SSW,197,2.0,2.0,80,0.00,,,0.00,Wunderground v.1.15,2013-01-04 01:40:00,
2013-01-03 19:45:00,17.7,12.6,30.41,SSW,197,2.0,2.0,80,0.00,,,0.00,Wunderground v.1.15,2013-01-04 01:45:00,
2013-01-03 19:55:00,17.5,12.4,30.41,SSW,197,1.0,2.0,80,0.00,,,0.00,Wunderground v.1.15,2013-01-04 01:55:00,
2013-01-03 20:05:00,17.3,12.5,30.41,SSW,197,2.0,2.0,81,0.00,,,0.00,Wunderground v.1.15,2013-01-04 02:05:00,
2013-01-03 20:15:00,17.2,12.4,30.41,SSW,197,2.0,2.0,81,0.00,,,0.00,Wunderground v.1.15,2013-01-04 02:15:00,
2013-01-03 20:25:00,17.1,12.6,30.41,SW,216,3.0,4.0,82,0.00,,,0.00,Wunderground v.1.15,2013-01-04 02:25:00,
2013-01-03 20:35:00,17.3,12.7,30.40,SW,217,3.0,5.0,82,0.00,,,0.00,Wunderground v.1.15,2013-01-04 02:35:00,
2013-01-03 20:40:00,17.3,13.0,30.40,SW,218,3.0,3.0,83,0.00,,,0.00,Wunderground v.1.15,2013-01-04 02:40:00,
2013-01-03 20:45:00,17.3,12.7,30.40,SW,217,3.0,3.0,82,0.00,,,0.00,Wunderground v.1.15,2013-01-04 02:45:00,
2013-01-03 20:55:00,17.4,13.1,30.40,SW,217,1.0,2.0,83,0.00,,,0.00,Wunderground v.1.15,2013-01-04 02:55:00,
2013-01-03 21:00:00,17.4,13.1,30.40,SW,217,2.0,2.0,83,0.00,,,0.00,Wunderground v.1.15,2013-01-04 03:00:00,
2013-01-03 21:05:00,17.3,13.0,30.40,SW,218,2.0,3.0,83,0.00,,,0.00,Wunderground v.1.15,2013-01-04 03:05:00,
2013-01-03 21:15:00,17.5,13.2,30.40,SW,219,2.0,3.0,83,0.00,,,0.00,Wunderground v.1.15,2013-01-04 03:15:00,
2013-01-03 21:20:00,17.5,13.2,30.40,SW,219,3.0,3.0,83,0.00,,,0.00,Wunderground v.1.15,2013-01-04 03:20:00,
2013-01-03 21:25:00,17.6,13.6,30.40,SW,219,3.0,4.0,84,0.00,,,0.00,Wunderground v.1.15,2013-01-04 03:25:00,
2013-01-03 21:30:00,17.6,13.6,30.39,SW,219,4.0,4.0,84,0.00,,,0.00,Wunderground v.1.15,2013-01-04 03:30:00,
2013-01-03 21:35:00,17.7,13.7,30.39,SW,218,4.0,4.0,84,0.00,,,0.00,Wunderground v.1.15,2013-01-04 03:35:00,
2013-01-03 21:40:00,17.7,13.7,30.39,SW,218,4.0,4.0,84,0.00,,,0.00,Wunderground v.1.15,2013-01-04 03:40:00,
2013-01-03 21:45:00,17.6,13.3,30.39,SW,220,3.0,4.0,83,0.00,,,0.00,Wunderground v.1.15,2013-01-04 03:45:00,
2013-01-03 21:55:00,17.5,13.2,30.39,SW,220,2.0,2.0,83,0.00,,,0.00,Wunderground v.1.15,2013-01-04 03:55:00,
2013-01-03 22:00:00,17.5,13.5,30.39,SW,220,2.0,2.0,84,0.00,,,0.00,Wunderground v.1.15,2013-01-04 04:00:00,
2013-01-03 22:05:00,17.4,13.4,30.39,SW,220,3.0,3.0,84,0.00,,,0.00,Wunderground v.1.15,2013-01-04 04:05:00,
2013-01-03 22:15:00,17.3,13.3,30.39,South,191,4.0,4.0,84,0.00,,,0.00,Wunderground v.1.15,2013-01-04 04:15:00,
2013-01-03 22:20:00,17.2,13.2,30.39,SSW,207,4.0,4.0,84,0.00,,,0.00,Wunderground v.1.15,2013-01-04 04:20:00,
2013-01-03 22:25:00,17.2,13.2,30.39,SSW,210,4.0,5.0,84,0.00,,,0.00,Wunderground v.1.15,2013-01-04 04:25:00,
2013-01-03 22:35:00,17.1,13.1,30.39,SW,217,3.0,4.0,84,0.00,,,0.00,Wunderground v.1.15,2013-01-04 04:35:00,
2013-01-03 22:40:00,17.0,13.0,30.39,SW,219,3.0,4.0,84,0.00,,,0.00,Wunderground v.1.15,2013-01-04 04:40:00,
2013-01-03 22:45:00,17.0,13.0,30.39,SW,219,3.0,4.0,84,0.00,,,0.00,Wunderground v.1.15,2013-01-04 04:45:00,
2013-01-03 22:55:00,16.8,12.8,30.39,SW,219,3.0,4.0,84,0.00,,,0.00,Wunderground v.1.15,2013-01-04 04:55:00,
2013-01-03 23:00:00,16.7,12.7,30.39,SW,219,3.0,3.0,84,0.00,,,0.00,Wunderground v.1.15,2013-01-04 05:00:00,
2013-01-03 23:05:00,16.7,12.7,30.39,SW,220,3.0,3.0,84,0.00,,,0.00,Wunderground v.1.15,2013-01-04 05:05:00,
2013-01-03 23:10:00,16.6,12.6,30.38,SW,220,3.0,3.0,84,0.00,,,0.00,Wunderground v.1.15,2013-01-04 05:10:00,
2013-01-03 23:15:00,16.5,12.5,30.38,SW,219,3.0,3.0,84,0.00,,,0.00,Wunderground v.1.15,2013-01-04 05:15:00,
2013-01-03 23:20:00,16.5,12.5,30.38,SW,219,4.0,4.0,84,0.00,,,0.00,Wunderground v.1.15,2013-01-04 05:20:00,
2013-01-03 23:25:00,16.4,12.4,30.38,SW,221,4.0,7.0,84,0.00,,,0.00,Wunderground v.1.15,2013-01-04 05:25:00,
2013-01-03 23:35:00,16.4,12.7,30.38,SW,225,4.0,5.0,85,0.00,,,0.00,Wunderground v.1.15,2013-01-04 05:35:00,
2013-01-03 23:45:00,16.6,12.9,30.38,SW,224,4.0,5.0,85,0.00,,,0.00,Wunderground v.1.15,2013-01-04 05:45:00,
2013-01-03 23:55:00,16.7,13.0,30.38,SW,229,5.0,5.0,85,0.00,,,0.00,Wunderground v.1.15,2013-01-04 05:55:00,